This is the latest recevied weather packets stored in our database for station/object W4NDF-13. If no packets are shown the sender has not sent any weather packets the latest 1 day(s).
| Time | Temp. | Humidity | Pressure | Rain* | Wind** | Luminosity | Snow |
|---|---|---|---|---|---|---|---|
| 1777989586 | 23.89° C | 75% | 1014.3 hPa | 0 mm | 3.13 m/s, 160° | 273 W/m² | - |
| 1777989283 | 23.89° C | 75% | 1014.7 hPa | 0 mm | 1.79 m/s, 225° | 312 W/m² | - |
| 1777988979 | 23.89° C | 76% | 1014.6 hPa | 0 mm | 2.24 m/s, 205° | 308 W/m² | - |
| 1777988676 | 23.89° C | 79% | 1014.4 hPa | 0 mm | 1.79 m/s, 174° | 287 W/m² | - |
| 1777988372 | 23.33° C | 79% | 1014 hPa | 0 mm | 1.79 m/s, 159° | 227 W/m² | - |
| 1777988070 | 23.33° C | 78% | 1014.1 hPa | 0 mm | 1.79 m/s, 175° | 306 W/m² | - |
| 1777987765 | 23.33° C | 79% | 1014.2 hPa | 0 mm | 1.79 m/s, 169° | 104 W/m² | - |
| 1777987462 | 22.78° C | 79% | 1013.8 hPa | 0 mm | 2.68 m/s, 190° | 249 W/m² | - |
| 1777987160 | 22.78° C | 80% | 1014 hPa | 0 mm | 2.24 m/s, 197° | 222 W/m² | - |
| 1777986857 | 22.78° C | 80% | 1013.8 hPa | 0 mm | 3.58 m/s, 213° | 214 W/m² | - |
| 1777986554 | 22.22° C | 79% | 1013.9 hPa | 0 mm | 1.79 m/s, 211° | 209 W/m² | - |
| 1777986252 | 22.22° C | 80% | 1014 hPa | 0 mm | 0.45 m/s, 230° | 198 W/m² | - |
| 1777985949 | 21.67° C | 81% | 1014.1 hPa | 0 mm | 2.24 m/s, 201° | 120 W/m² | - |
| 1777985647 | 21.67° C | 81% | 1014.1 hPa | 0 mm | 1.79 m/s, 187° | 109 W/m² | - |
| 1777985343 | 21.67° C | 81% | 1014 hPa | 0 mm | 1.79 m/s, 203° | 98 W/m² | - |
| 1777985040 | 21.67° C | 81% | 1013.9 hPa | 0 mm | 1.79 m/s, 210° | 82 W/m² | - |
| 1777984736 | 21.11° C | 81% | 1013.6 hPa | 0 mm | 1.34 m/s, 214° | 79 W/m² | - |
| 1777984433 | 21.11° C | 82% | 1013.6 hPa | 0 mm | 0.89 m/s, 140° | 73 W/m² | - |
| 1777984129 | 21.11° C | 82% | 1013.6 hPa | 0 mm | 1.79 m/s, 194° | 66 W/m² | - |
| 1777983826 | 20.56° C | 83% | 1013.5 hPa | 0 mm | 1.34 m/s, 238° | 60 W/m² | - |
| 1777983523 | 20.56° C | 84% | 1013.5 hPa | 0 mm | 0.45 m/s, 187° | 48 W/m² | - |
| 1777983220 | 20.56° C | 85% | 1013.4 hPa | 0 mm | 0.45 m/s, 173° | 47 W/m² | - |
| 1777982916 | 20° C | 84% | 1013.3 hPa | 0 mm | 1.79 m/s, 174° | 49 W/m² | - |
| 1777982612 | 20° C | 85% | 1013.4 hPa | 0 mm | 0.89 m/s, 209° | 45 W/m² | - |
| 1777982311 | 20° C | 85% | 1013.2 hPa | 0 mm | 1.79 m/s, 204° | 42 W/m² | - |
* Rain latest hour (hover to see other rain measurements)
** Current wind speed in m/s (hover to see current wind gust speed)